Probability
0 0 0 0 0 0 0 0 0 0 0 0 0 0 0 0 0 0 1 2 2 2 2 3 12 24 34 39 35 32 30 29 27 22 16 9 3 0 1 2 1 0 0
0 0 0 0 0 0 0 0 0 0 0 0 0 0 0 0 0 0 0 1 1 1 1 2 7 16 28 37 39 35 32 31 29 27 24 17 7 1 2 2 1 0 0
0 0 0 0 0 0 0 0 0 0 0 0 1 1 0 0 0 0 0 0 0 0 0 0 2 7 17 29 37 39 36 31 31 33 33 29 16 5 3 3 1 0 0
0 0 0 0 0 0 0 0 0 0 0 0 1 1 0 0 0 0 0 0 0 0 0 0 0 2 7 15 26 37 41 38 36 36 40 37 24 11 5 3 2 0 0
0 0 0 0 0 0 0 0 0 0 0 0 1 1 1 0 0 1 0 0 0 0 0 0 0 0 1 5 12 24 34 41 43 42 41 38 28 17 9 5 2 0 0
0 0 0 0 0 0 0 0 0 0 0 0 0 0 1 1 0 0 0 0 0 0 0 0 0 0 0 1 3 8 15 25 36 42 43 37 28 21 14 7 2 0 0
0 0 0 0 0 0 0 0 0 0 0 0 0 0 1 2 1 0 0 0 0 0 0 0 0 0 0 0 0 0 2 7 17 31 41 38 31 27 21 11 4 1 0
0 0 0 0 0 0 0 0 0 0 0 1 0 1 2 2 1 0 0 0 0 0 0 0 0 0 0 0 0 0 0 1 4 14 26 29 26 26 23 14 6 2 1
0 0 0 0 0 0 0 0 0 0 0 0 0 1 1 1 0 0 1 1 1 0 0 0 0 0 0 0 0 1 1 1 1 3 8 10 10 11 14 13 7 2 0
0 0 0 0 0 0 0 0 0 0 0 0 0 0 0 0 0 0 1 1 1 0 0 0 0 0 0 0 0 1 2 1 1 0 1 2 3 2 4 8 6 2 0
0 0 0 0 0 0 0 0 0 0 0 0 0 0 0 0 0 0 0 0 0 0 0 0 0 0 0 0 0 1 1 1 2 3 4 6 6 4 3 5 6 3 2
0 0 0 0 0 0 0 0 0 0 0 0 0 0 0 0 0 0 0 0 0 1 1 0 0 0 0 0 0 0 0 0 3 6 7 7 7 5 5 6 7 6 5
0 0 0 0 0 0 0 0 0 0 0 0 0 0 0 0 0 0 0 0 0 1 1 0 0 0 0 0 0 0 0 1 3 5 6 7 8 6 6 7 6 6 5
0 0 0 0 0 0 0 0 0 0 0 0 0 0 0 0 0 0 0 0 0 0 0 0 0 0 0 0 0 0 0 1 2 4 6 8 8 5 4 5 4 2 2
0 0 0 0 0 0 0 0 0 0 0 0 0 0 0 0 0 0 0 0 0 0 0 0 0 0 0 0 0 0 0 0 1 3 6 7 6 4 2 2 1 0 0
0 0 0 0 0 0 0 0 0 0 0 0 0 0 0 0 0 0 0 0 0 0 0 0 0 0 0 0 0 0 0 0 1 2 3 4 4 3 1 0 0 0 0
0 0 0 0 0 0 0 0 0 0 0 0 0 0 0 0 0 0 0 0 0 0 0 0 0 0 0 0 0 0 0 0 0 0 1 2 2 2 1 0 0 0 0
0 0 0 0 0 0 0 0 0 0 0 0 0 0 0 0 0 0 0 0 0 0 0 0 0 0 0 0 0 0 0 0 0 0 0 1 1 1 0 0 0 0 0
0 0 0 0 0 0 0 0 0 0 0 0 0 0 0 0 0 0 0 0 0 0 0 0 0 0 0 0 0 0 0 0 0 0 0 0 0 0 0 0 0 0 0
0 0 0 0 0 0 0 0 0 0 0 0 0 0 0 0 0 0 0 0 0 0 0 0 0 0 0 0 0 0 0 0 0 0 0 0 0 0 0 0 0 0 0
0 0 0 0 0 0 0 0 0 0 0 0 0 0 0 0 0 0 0 0 0 0 0 0 0 0 0 0 0 0 0 0 0 0 0 0 0 0 0 0 0 0 0
0 0 0 0 0 0 0 0 0 0 0 0 0 0 0 0 0 0 0 0 0 0 0 0 0 0 0 0 0 0 0 0 0 0 0 0 0 0 0 0 0 0 0
0 0 0 0 0 0 0 0 0 0 0 0 0 0 0 0 0 0 0 0 0 0 0 0 0 0 0 0 0 0 0 0 0 0 0 0 0 0 0 0 0 0 0
0 0 0 0 0 0 0 0 0 0 0 0 0 0 0 0 0 0 0 0 0 0 0 0 0 0 0 0 0 0 0 0 0 0 0 0 0 0 0 0 0 0 0
0 0 0 0 0 0 0 0 0 0 0 0 0 0 0 0 0 0 0 0 0 0 0 0 0 0 0 0 0 0 0 0 0 0 0 0 0 0 0 0 0 0 0
0 0 0 0 0 0 0 0 0 0 0 0 0 0 0 0 0 0 0 0 0 0 0 0 0 0 0 0 0 0 0 0 0 0 0 0 0 0 0 0 0 0 0
Wind_Speed
14 14 14 14 14 14 13 14 13 13 13 13 14 13 13 12 11 10 9 8 8 8 8 10 11 11 8 7 8 8 8 7 7 4 5 7 7 6 6 5 6 6 8
15 15 15 15 15 15 15 15 14 14 14 14 14 15 15 14 13 12 12 11 10 10 9 9 9 9 11 9 7 9 8 8 8 7 6 6 7 8 7 6 6 6 7
16 16 16 16 16 15 15 15 15 15 14 14 14 15 16 15 15 14 13 12 12 11 10 10 9 8 10 9 10 9 8 8 8 7 7 6 6 7 8 7 7 6 7
16 16 16 16 16 16 16 15 15 15 15 15 15 15 16 16 16 15 15 14 13 12 11 10 10 10 9 9 9 10 9 9 9 8 7 7 7 8 7 7 6 5 5
16 16 17 16 16 16 16 16 15 15 16 15 15 15 15 15 15 16 15 15 14 13 12 11 11 11 9 7 6 6 8 8 8 9 8 8 8 9 8 7 7 6 5
16 16 16 16 16 16 16 16 16 16 16 15 15 16 16 14 13 14 14 15 14 14 13 12 11 11 11 11 9 8 8 9 9 9 8 9 11 11 9 9 9 8 5
16 16 16 16 16 16 16 16 16 16 16 15 15 15 16 15 12 12 15 15 15 13 13 11 10 10 12 11 11 11 11 10 9 8 9 10 11 12 13 13 11 10 6
16 16 16 16 16 16 16 16 16 14 14 14 14 15 15 14 13 14 14 16 16 14 13 13 12 10 10 10 10 11 11 10 10 10 10 8 8 10 12 12 11 9 9
16 16 16 16 16 16 16 16 15 13 13 13 13 14 14 13 12 14 14 13 14 15 14 13 13 13 9 8 10 11 10 9 9 9 7 4 3 8 10 10 12 11 9
16 16 16 16 16 16 16 15 13 12 12 12 12 12 12 12 11 14 15 11 13 13 12 12 11 10 9 11 11 10 11 10 9 9 8 6 8 12 14 13 13 12 10
16 16 16 15 15 15 14 13 12 11 10 10 11 10 10 10 10 14 16 11 11 12 11 11 10 13 10 11 10 9 8 7 8 8 8 9 9 10 11 10 10 11 11
15 15 16 15 13 12 13 12 11 9 9 8 8 8 7 7 9 12 16 14 11 11 10 9 8 16 13 11 9 7 5 6 7 7 7 8 9 9 9 8 7 5 4
15 15 15 15 13 11 11 11 9 7 5 5 5 5 4 4 7 11 14 14 12 9 7 4 7 14 12 10 10 8 8 8 8 8 8 8 8 9 9 8 8 8 8
14 14 13 13 12 11 8 7 7 6 5 4 4 3 3 3 5 8 9 10 11 10 8 7 10 10 8 6 7 9 9 8 8 8 7 7 8 9 10 10 10 9 9
13 12 12 11 10 9 8 6 7 5 4 4 3 3 2 3 3 5 6 8 9 10 9 8 9 9 10 9 8 8 8 8 8 7 7 8 9 10 10 10 10 10 9
11 11 10 9 9 8 7 5 1 3 2 2 3 4 2 1 4 5 4 3 4 7 8 8 9 9 9 9 8 8 8 8 7 8 8 9 10 11 11 10 10 10 11
12 11 9 9 9 8 7 6 4 0 1 1 0 1 2 2 3 5 5 5 6 8 9 8 8 8 8 8 8 7 8 7 7 7 8 10 11 11 12 12 11 10 10
12 10 10 8 8 7 7 5 4 4 2 1 3 2 2 3 5 6 8 9 6 8 9 8 8 7 7 7 7 6 6 6 7 7 8 10 11 12 13 12 12 12 12
11 8 9 9 8 7 6 5 4 4 3 1 1 4 4 6 6 7 9 7 8 9 8 7 6 6 6 6 5 5 6 6 7 6 7 10 11 12 12 12 12 14 12
9 10 10 9 7 7 6 5 4 3 2 1 1 2 4 5 5 6 6 6 6 7 7 7 6 5 5 5 5 5 6 6 8 7 7 9 10 10 12 13 12 12 11
9 8 9 8 7 7 6 5 5 3 2 2 1 2 0 2 3 5 5 5 5 6 6 5 5 5 5 5 5 6 8 7 7 7 8 8 10 10 10 11 12 12 11
8 7 7 6 6 7 6 5 4 4 3 2 2 3 1 2 2 3 3 4 4 4 4 5 5 4 5 5 5 6 7 7 8 8 9 9 10 11 11 11 12 12 11
8 8 7 6 5 5 5 6 6 5 4 3 2 2 2 1 1 2 2 2 3 3 3 3 3 3 4 4 5 6 7 8 8 9 10 10 10 10 11 12 14 13 13
8 8 7 6 6 5 5 6 5 5 5 4 3 2 1 1 1 1 1 1 2 2 2 3 3 5 7 6 5 6 7 8 10 10 12 12 12 11 11 11 12 14 13
8 7 7 6 6 6 5 5 5 5 5 4 4 3 2 2 1 1 1 2 3 3 3 3 4 5 8 9 8 7 8 8 7 9 10 10 12 12 12 13 11 12 12
8 7 6 5 5 6 6 6 6 6 6 5 4 4 4 3 3 3 3 4 4 4 4 4 6 7 10 9 10 10 8 7 6 6 9 11 12 12 13 11 14 12 13
Wind_Direction
310 309 306 301 299 295 289 284 280 276 273 266 259 252 246 240 232 228 237 236 235 241 255 255 247 240 235 231 228 224 224 228 230 202 162 142 147 145 131 119 118 106 93
310 307 303 301 297 294 291 290 286 279 272 265 259 254 248 242 235 230 232 232 234 237 236 244 254 248 236 232 230 226 223 222 225 213 182 161 159 149 133 126 116 102 98
310 306 303 301 299 297 295 291 286 280 273 268 262 255 250 246 241 234 232 231 231 233 235 236 241 250 245 232 226 228 224 219 223 216 197 166 152 148 134 122 112 111 107
309 306 302 300 298 296 294 290 286 281 275 268 263 256 250 247 241 235 230 229 231 230 229 230 232 234 242 243 230 226 226 220 215 218 199 173 158 155 149 143 133 129 121
308 305 304 303 300 297 293 290 286 281 276 270 263 257 249 244 239 232 230 227 226 228 225 225 226 225 232 240 244 232 228 222 214 214 202 182 169 166 165 159 142 129 118
307 305 305 303 300 297 294 291 287 282 277 273 267 259 251 243 232 223 226 231 225 224 225 222 220 211 218 220 237 246 249 239 224 217 206 196 182 176 166 160 150 152 148
306 303 301 300 298 296 293 291 287 283 278 272 266 259 252 245 234 215 216 231 229 224 223 220 224 211 201 214 212 222 235 252 256 245 228 212 188 177 169 168 169 171 147
304 302 302 302 299 298 295 291 287 282 277 272 266 259 253 243 219 210 208 226 233 225 221 218 223 226 209 212 214 216 219 221 231 236 240 232 206 180 176 172 157 132 120
306 306 307 305 303 301 298 295 292 286 278 271 265 259 251 241 214 203 202 221 225 226 221 218 217 222 193 187 222 224 221 219 220 230 248 256 211 169 164 153 149 148 145
309 309 308 304 301 301 299 297 293 287 280 274 266 256 248 240 213 197 198 218 222 221 218 217 211 224 177 178 222 227 223 218 213 201 207 201 186 167 166 173 167 163 150
309 307 305 303 302 300 299 298 295 289 284 275 268 261 249 238 210 195 197 214 219 220 215 211 204 184 183 186 221 236 233 225 213 206 198 193 182 177 180 183 182 173 166
308 307 306 306 306 304 304 303 301 296 289 283 274 262 243 226 209 193 196 210 228 225 222 215 191 164 177 190 212 226 220 217 219 208 198 192 181 176 178 177 169 157 150
308 308 308 309 309 306 307 309 307 302 291 285 274 261 246 220 189 184 192 203 218 232 225 202 148 156 173 196 214 209 207 216 216 208 200 192 180 167 158 145 130 119 116
308 310 310 310 313 316 314 312 310 310 305 296 286 266 247 219 192 183 188 193 200 213 215 160 147 162 204 223 190 198 214 218 216 210 197 181 162 155 154 150 143 138 133
311 311 311 313 318 318 319 322 323 335 336 310 304 295 268 226 190 176 188 191 196 197 189 190 195 190 200 209 210 207 205 204 207 207 190 174 161 155 154 153 149 151 150
310 312 312 314 317 317 320 326 331 310 331 312 297 311 316 74 130 149 157 153 150 163 186 198 203 203 206 209 209 204 203 202 201 193 185 173 162 155 153 154 158 159 155
311 313 311 312 315 318 323 329 335 293 200 165 342 331 3 75 138 158 162 157 157 170 202 207 207 207 208 210 211 209 203 196 191 187 180 171 160 155 156 159 163 161 157
316 316 311 312 316 321 326 329 334 335 328 150 128 105 124 137 148 154 154 161 170 203 217 213 208 207 208 209 209 206 199 186 183 181 174 167 161 157 159 161 164 163 160
320 323 322 319 321 328 332 331 339 344 344 15 109 121 126 138 144 159 180 203 190 197 211 216 214 211 208 207 205 200 191 181 175 170 170 164 160 158 159 163 162 161 158
322 319 317 320 331 342 347 349 356 3 3 21 73 119 148 169 163 169 202 213 205 201 205 212 214 212 209 206 199 190 180 171 167 163 163 159 157 159 159 160 158 160 163
323 323 317 322 344 355 2 2 1 4 13 29 59 80 330 202 174 179 194 204 207 203 203 207 207 204 198 195 193 185 174 162 159 158 156 157 157 155 155 156 157 163 168
323 326 335 342 348 0 2 3 13 20 26 48 83 119 190 236 182 199 202 203 213 214 207 206 203 199 190 181 181 173 159 153 155 156 154 155 154 154 155 157 161 167 168
326 330 341 349 357 12 5 9 17 26 35 44 53 89 143 175 166 186 204 208 206 203 195 189 189 184 167 163 166 163 156 155 155 155 153 153 151 154 158 159 162 164 165
333 339 346 355 6 21 21 20 23 26 30 35 36 42 72 119 151 181 219 195 180 176 170 167 173 167 158 156 154 155 154 151 154 159 157 154 153 155 154 156 161 163 163
342 346 350 360 4 17 25 29 30 33 37 36 38 51 63 69 92 106 108 114 124 130 140 149 157 158 154 151 147 138 131 141 157 157 160 157 153 152 154 159 160 161 161
348 351 355 3 4 11 22 31 35 38 42 47 54 62 67 72 83 91 92 95 104 113 127 136 140 141 142 140 131 125 128 137 147 164 160 152 153 153 157 158 158 160 160